Home > Weather > Caledon > Past weeks

Flag for Canada Weather for the Past 2 Weeks in Caledon, Ontario, Canada

Now
45 °F

Low clouds.


Feels Like: 41 °F
Forecast: N/A
Wind: 7 mph from Northeast

Location: Borden

Current Time: May 1, 2016 at 7:55:48 PM

Latest Report: May 1, 2016 at 7:00 PM


Visibility: 9 mi

Pressure: 30.05 "Hg

Humidity: 93%

Dew Point: 43 °F

Location of CaledonLocation

Historic Weather in Caledon — Graph

°F

Caledon Temperature Yesterday

Maximum temperature yesterday: 63 °F (at 2:00 PM)
Minimum temperature yesterday: 23 °F (at 6:00 AM)
Average temperature yesterday: 45 °F

High & Low Weather Summary for the Past Weeks

 TemperatureHumidityPressure
High79 °F (Apr 18, 2:00 PM)100% (Apr 22, 1:00 AM)30.49 "Hg (Apr 22, 1:00 AM)
Low19 °F (Apr 27, 6:00 AM)19% (Apr 20, 6:00 PM)29.78 "Hg (Apr 22, 5:00 AM)
Average44 °F65%30.12 "Hg
* Reported Apr 16 6:00 PM — May 1 6:00 PM, Caledon, Weather by CustomWeather, © 2016

Note: Actual official high and low records may vary slightly from our data, if they occured in-between our weather recording intervals... More about our weather records

Advertising

Caledon Weather History for the Previous 24 Hours

Scroll right to see more
 ConditionsComfort  
Time TempWeatherWind HumidityBarometerVisibility
6:00 PM
Sun, May 1
46 °FLight rain. Partly sunny.9 mph93%30.05 "Hg7 mi
5:51 PM46 °FLight rain. Mostly cloudy.10 mph93%30.02 "Hg5 mi
5:00 PM46 °FLow clouds.10 mph93%30.04 "Hg2 mi
4:00 PM46 °FLow clouds.9 mph93%30.03 "Hg3 mi
3:00 PM48 °FOvercast.9 mph87%30.03 "Hg9 mi
2:00 PM46 °FOvercast.6 mph93%30.03 "Hg9 mi
1:00 PM46 °FOvercast.3 mph93%30.04 "Hg5 mi
12:00 PM45 °FOvercast.9 mph93%30.04 "Hg9 mi
11:00 AM43 °FLight rain. Overcast.8 mph87%30.06 "Hg6 mi
10:00 AM45 °FOvercast.8 mph87%30.05 "Hg9 mi
9:00 AM45 °FLight rain. Overcast.7 mph93%30.05 "Hg9 mi
8:00 AM43 °FLight rain. Overcast.3 mph93%30.06 "Hg9 mi
7:00 AM43 °FLight rain. Overcast.7 mph87%30.03 "Hg9 mi
6:00 AM43 °FLight rain. Overcast.5 mph87%30.05 "Hg9 mi
5:00 AM45 °FLight rain. Overcast.6 mph81%30.06 "Hg9 mi
4:00 AM45 °FLight rain. Overcast.2 mph76%30.05 "Hg9 mi
3:00 AM46 °FOvercast.5 mph66%30.06 "Hg9 mi
2:00 AM46 °FOvercast.No wind62%30.08 "Hg9 mi
1:00 AM46 °FMostly cloudy.No wind57%30.09 "Hg9 mi
12:00 AM48 °FOvercast.5 mph50%30.10 "Hg9 mi
11:00 PM
Sat, Apr 30
46 °FClear.No wind50%30.12 "Hg9 mi
10:00 PM46 °FClear.2 mph50%30.13 "Hg9 mi
9:00 PM50 °FSunny.5 mph37%30.13 "Hg9 mi
8:00 PM54 °FPassing clouds.8 mph30%30.14 "Hg9 mi
7:00 PM57 °FSunny.12 mph27%30.14 "Hg9 mi
Weather by CustomWeather, © 2016

See weather overviewHow to use our weather pages